EW7112 Weather Reports


Display with metric or nautical units.
time (UTC)temp
F
wind
direction
speed
MPH
gust
MPH
rain 1hr
in
rain 24hr
in
rain mn
in
humidity
%
barometer
mb
20260904124544 79 157 2.0 8.0 0.00 0.00 0.00 82 991.6
20260904123055 79 108 1.0 7.0 0.00 0.00 0.00 82 991.5
20260904121537 79 137 2.0 4.0 0.00 0.00 0.00 82 991.4
20260904120034 80 151 1.0 4.0 0.00 0.00 0.00 82 991.3
20260904114542 80 136 1.0 5.0 0.00 0.00 0.00 82 991.2
20260904113033 80 178 1.0 4.0 0.00 0.00 0.00 82 991.2
20260904111533 80 224 0.0 5.0 0.00 0.00 0.00 82 991.1
20260904110035 80 158 1.0 5.0 0.00 0.00 0.00 82 991.1
20260904104529 80 143 1.0 4.0 0.00 0.00 0.00 82 990.9
20260904103028 80 113 0.0 3.0 0.00 0.00 0.00 82 990.9
20260904101527 80 121 0.0 3.0 0.00 0.00 0.00 82 990.8
20260904100027 80 93 1.0 5.0 0.00 0.00 0.00 81 990.8
20260904094526 80 166 0.0 4.0 0.00 0.00 0.00 81 990.7
20260904093023 80 186 0.0 6.0 0.00 0.00 0.00 81 990.7
20260904091527 80 108 1.0 4.0 0.00 0.00 0.00 81 990.7
20260904090025 80 194 2.0 6.0 0.00 0.00 0.00 80 990.7
20260904084521 80 180 1.0 5.0 0.00 0.00 0.00 80 990.7
20260904083022 80 170 1.0 3.0 0.00 0.00 0.00 80 990.6
20260904081519 80 104 0.0 4.0 0.00 0.00 0.00 79 990.6
20260904080020 80 169 1.0 5.0 0.00 0.00 0.00 79 990.5
20260904074519 80 221 2.0 6.0 0.00 0.00 0.00 78 990.5
20260904073016 81 115 1.0 7.0 0.00 0.00 0.00 77 990.6
20260904071528 81 82 2.0 5.0 0.00 0.00 0.00 77 990.7
20260904070013 81 112 1.0 4.0 0.00 0.00 0.00 76 990.8
20260904064509 81 173 1.0 4.0 0.00 0.00 0.00 76 991.0
20260904063009 81 174 1.0 6.0 0.00 0.00 0.00 75 990.9
20260904061507 81 232 1.0 7.0 0.00 0.00 0.00 74 991.0
20260904060004 81 105 2.0 6.0 0.00 0.00 0.00 72 991.0
20260904054503 81 97 2.0 7.0 0.00 0.00 0.00 71 991.1
20260904053100 81 114 1.0 4.0 0.00 0.00 0.00 70 990.9
20260904051559 82 40 1.0 5.0 0.00 0.00 0.00 69 990.8
20260904050056 82 125 2.0 4.0 0.00 0.00 0.00 67 990.8
20260904044558 82 85 1.0 5.0 0.00 0.00 0.00 66 990.8
20260904043054 82 146 1.0 8.0 0.00 0.00 0.00 66 990.6
20260904041554 83 158 2.0 9.0 0.00 0.00 0.00 65 990.8
20260904040053 83 128 2.0 5.0 0.00 0.00 0.00 65 990.8
20260904034601 83 217 3.0 6.0 0.00 0.00 0.00 66 990.8
20260904033052 83 138 3.0 7.0 0.00 0.00 0.00 66 990.9
20260904031551 84 188 2.0 9.0 0.00 0.00 0.00 66 990.8
20260904030051 84 133 5.0 9.0 0.00 0.00 0.00 65 990.8
20260904024550 84 150 4.0 10.0 0.00 0.00 0.00 64 990.5
20260904023049 85 155 1.0 5.0 0.00 0.00 0.00 64 990.3
20260904021549 85 108 1.0 7.0 0.00 0.00 0.00 66 990.0
20260904020049 85 141 4.0 11.0 0.00 0.00 0.00 66 989.7
20260904014549 86 121 3.0 13.0 0.00 0.00 0.00 65 989.4
20260904013049 86 130 7.0 13.0 0.00 0.00 0.00 64 989.3
20260904011548 87 137 4.0 12.0 0.00 0.00 0.00 60 989.0
20260904010053 88 135 2.0 8.0 0.00 0.00 0.00 59 988.8
20260904004557 88 139 6.0 13.0 0.00 0.00 0.00 59 988.9
20260904003045 89 84 6.0 11.0 0.00 0.00 0.00 59 988.7
20260904001543 89 89 4.0 10.0 0.00 0.00 0.00 59 988.7
20260904000056 90 94 4.0 12.0 0.00 0.00 0.00 58 988.6
20260903234545 91 107 4.0 11.0 0.00 0.00 0.00 57 988.5
20260903233039 91 93 3.0 11.0 0.00 0.00 0.00 57 988.3
20260903231538 92 123 2.0 7.0 0.00 0.00 0.00 57 988.1
20260903230036 92 131 4.0 11.0 0.00 0.00 0.00 57 988.1
20260903224538 93 51 5.0 12.0 0.00 0.00 0.00 56 988.3
20260903223038 93 109 3.0 11.0 0.00 0.00 0.00 57 988.0
20260903221532 94 120 3.0 11.0 0.00 0.00 0.00 55 988.1
20260903220039 94 162 3.0 12.0 0.00 0.00 0.00 55 988.1
20260903214526 93 126 5.0 10.0 0.00 0.00 0.00 56 988.2
20260903213034 93 207 3.0 9.0 0.00 0.00 0.00 57 988.4
20260903211552 93 127 1.0 6.0 0.00 0.00 0.00 57 988.4
20260903210017 92 141 5.0 13.0 0.00 0.00 0.00 59 988.7
20260903204513 92 167 3.0 10.0 0.00 0.00 0.00 59 988.9
20260903203012 92 215 4.0 12.0 0.00 0.00 0.00 59 989.1
20260903201508 90 360 4.0 9.0 0.00 0.00 0.00 63 989.4
20260903200006 91 49 4.0 10.0 0.00 0.00 0.00 62 989.4
20260903194503 90 127 3.0 10.0 0.00 0.00 0.00 63 989.5
20260903193101 90 110 5.0 12.0 0.00 0.00 0.00 64 989.7
20260903191557 90 117 3.0 14.0 0.00 0.00 0.00 64 989.8
20260903190057 89 96 4.0 10.0 0.00 0.00 0.00 66 990.1
20260903184600 88 97 3.0 11.0 0.00 0.00 0.00 67 990.3
20260903183049 88 165 5.0 12.0 0.00 0.00 0.00 69 990.5
20260903181547 88 128 4.0 11.0 0.00 0.00 0.00 69 990.6
20260903180049 88 186 3.0 13.0 0.00 0.00 0.00 68 990.6
20260903174604 88 129 3.0 10.0 0.00 0.00 0.00 68 990.8
20260903173045 88 176 3.0 13.0 0.00 0.00 0.00 69 990.9
20260903171542 88 173 2.0 12.0 0.00 0.00 0.00 68 991.1
20260903170103 88 96 5.0 10.0 0.00 0.00 0.00 69 991.1
20260903164542 86 172 2.0 12.0 0.00 0.00 0.00 73 991.2
20260903163033 85 240 3.0 13.0 0.00 0.00 0.00 74 991.2
20260903161532 85 210 2.0 7.0 0.00 0.00 0.00 74 991.3
20260903160033 83 116 1.0 9.0 0.00 0.00 0.00 76 991.3
20260903154528 82 184 1.0 6.0 0.00 0.00 0.00 77 991.3
20260903153027 82 105 2.0 8.0 0.00 0.00 0.00 78 991.2
20260903151526 82 138 3.0 7.0 0.00 0.00 0.00 78 991.2
20260903150028 81 231 2.0 6.0 0.00 0.00 0.00 78 991.3
20260903144522 81 76 2.0 7.0 0.00 0.00 0.00 79 991.3
20260903143020 81 110 3.0 8.0 0.00 0.00 0.00 79 991.4
20260903141520 80 115 2.0 8.0 0.00 0.00 0.00 78 991.5
20260903140015 80 160 2.0 7.0 0.00 0.00 0.00 78 991.4
20260903134512 80 53 3.0 7.0 0.00 0.00 0.00 78 991.2
20260903133010 80 108 0.0 4.0 0.00 0.00 0.00 78 991.1
20260903131508 80 139 0.0 4.0 0.00 0.00 0.00 78 991.1
20260903130006 79 99 1.0 6.0 0.00 0.00 0.00 78 991.1